Location: Cuguron
(43.0994°N, 0.5363°E)
Time: 04:25:58
(UTC+00:00)

Okean 1 - Pass Details

Date: 15 May 2026
Orbit: 458 x 474 km, 82.5° (Epoch: 6 June)

Event Time Altitude Azimuth Distance (km) Brightness Sun altitude
Exits shadow 21:25:25 39° 80° (E) 719 3.6 -19.1°
Drops below altitude 10° 21:28:32 10° 23° (NNE) 1,648 6.1 -19.4°
Sets 21:30:42 0° 16° (NNE) 2,533 7.3 -19.7°
